Wind_Speed
34 34 34 34 34 34 34 35 35 35 35 35 35 34 34 33 32 31 30 29 29 29 29 29 29 30 30 30 29 27 25 23 22 21 21 23 24 25 26 28 30 32 32 32 33 33 33 32 30 28 27 28 28 28 29 30 31 33 35 38 40 42 44
36 36 36 36 35 34 34 34 34 34 35 36 36 36 35 35 34 32 31 30 29 30 30 30 29 28 28 27 26 26 24 22 21 20 20 22 23 24 25 25 26 27 28 29 30 31 30 29 27 27 28 28 27 27 27 28 30 32 34 35 36 37 38
36 37 37 36 36 35 35 35 35 35 35 36 36 36 35 35 34 34 33 31 31 31 32 32 31 29 27 26 25 24 23 21 21 20 21 21 23 24 25 25 24 25 25 26 27 28 28 27 27 27 27 26 25 25 26 27 29 31 33 33 34 34 34
34 34 34 34 34 34 34 35 35 35 35 35 35 35 35 35 35 35 34 34 33 33 33 34 34 32 29 27 25 24 24 23 23 23 22 23 23 24 25 25 25 25 25 25 26 26 27 27 27 26 25 24 24 23 24 26 28 30 32 33 33 33 33
32 32 32 31 31 32 32 33 33 33 32 31 31 31 32 33 34 35 35 35 35 35 35 36 36 36 34 31 29 29 28 27 26 25 25 24 24 24 24 25 25 25 25 25 25 25 25 25 25 25 24 23 23 23 23 24 27 30 31 33 33 33 33
32 32 32 32 31 31 32 33 33 32 31 30 29 29 29 30 31 32 33 34 36 37 37 38 38 39 39 37 36 35 34 33 31 29 28 27 26 25 25 24 25 26 26 26 26 25 26 26 25 25 24 24 24 24 23 23 26 29 32 33 34 34 33
33 34 34 34 33 32 33 34 34 34 32 31 30 29 29 30 30 31 31 32 34 36 37 39 39 40 41 41 41 40 39 38 36 34 31 30 29 28 27 26 26 26 26 27 27 27 27 27 28 27 26 25 24 24 24 24 25 27 30 33 35 35 35
34 34 36 36 35 34 34 34 35 35 34 33 32 31 30 30 31 31 31 31 31 32 34 37 38 40 41 41 41 41 40 39 38 36 34 33 32 31 31 30 30 29 28 29 29 29 29 29 29 29 28 27 26 25 25 25 25 26 28 32 35 37 37
37 36 36 37 37 36 35 35 36 37 37 35 34 33 32 32 32 33 34 33 32 31 32 33 35 37 38 39 40 40 39 39 38 37 36 35 34 33 33 33 33 33 32 31 31 31 31 31 30 30 29 29 28 27 26 26 26 27 27 29 33 37 39
40 38 38 39 39 39 38 38 38 39 40 38 37 36 36 35 34 34 34 35 35 35 34 34 34 35 36 37 38 39 40 39 39 38 38 37 36 35 34 34 35 35 34 32 31 31 31 32 32 32 31 31 30 29 28 28 28 28 28 29 30 33 37
43 42 41 41 42 42 42 42 41 42 42 41 41 41 40 40 39 38 37 36 37 38 38 37 37 37 38 38 39 39 40 40 40 40 39 38 37 37 36 36 36 36 35 33 32 31 31 31 32 32 33 33 32 32 31 30 29 29 30 30 30 31 34
45 45 45 45 44 45 46 47 45 45 45 44 44 44 44 44 44 44 43 42 41 41 41 41 41 41 41 40 40 41 41 41 41 41 40 39 39 38 38 38 37 37 36 35 34 33 32 31 31 31 33 34 34 34 33 33 32 32 32 32 32 32 33
45 46 48 49 48 48 50 51 50 49 49 48 47 47 46 47 48 48 48 46 45 44 44 44 44 44 44 44 44 43 43 43 43 42 42 42 41 40 40 40 39 39 38 37 36 35 35 34 33 32 32 34 34 34 34 34 34 34 34 34 34 34 34
46 47 49 50 51 51 53 54 53 52 51 50 50 49 49 50 51 51 51 50 49 47 46 46 45 45 46 47 47 47 46 46 45 45 44 44 43 42 42 41 41 41 41 40 40 39 39 38 37 36 35 35 35 34 34 35 35 36 37 37 37 37 36
48 49 49 50 51 52 54 56 55 53 52 52 52 52 52 53 54 53 53 52 51 50 49 48 48 48 48 49 50 50 49 48 48 47 46 45 45 44 44 43 43 43 43 43 44 44 44 43 42 41 41 40 40 40 40 40 40 40 40 39 40 40 40
52 51 51 51 52 53 55 56 55 55 54 55 55 55 55 55 55 55 54 53 52 51 51 51 52 52 52 52 52 51 51 50 49 49 48 48 48 47 47 47 46 46 46 46 47 47 47 47 48 47 47 46 46 46 46 46 45 45 44 43 43 43 43
55 54 53 52 52 53 55 56 56 54 52 53 53 54 54 54 54 54 53 53 53 53 53 53 54 54 54 54 53 53 52 51 50 50 50 50 50 50 50 50 50 49 49 49 49 49 49 49 50 50 50 50 49 48 47 46 46 45 45 45 45 45 45
57 56 56 55 54 53 54 56 58 56 53 51 51 52 52 53 53 53 53 53 54 55 55 55 55 55 54 53 53 52 52 51 51 52 51 51 51 52 52 51 51 51 50 50 49 49 49 49 49 50 50 50 50 48 47 47 46 45 45 45 46 46 47
59 58 57 57 56 56 55 56 58 60 60 60 59 58 56 55 53 52 52 53 54 54 55 56 56 56 55 54 54 53 53 53 53 52 52 52 52 52 52 52 51 50 49 48 47 46 46 46 46 46 46 47 46 46 46 46 46 46 46 46 47 47 48
60 60 59 59 58 58 57 57 57 59 61 64 65 65 63 60 57 55 54 54 55 56 57 57 57 58 58 57 56 55 55 55 54 53 52 51 52 52 52 52 50 48 47 46 44 43 43 44 43 42 41 41 41 41 41 41 41 42 43 44 46 47 49
61 61 61 60 60 59 59 58 58 58 59 61 63 64 64 63 61 59 57 56 56 56 57 57 58 58 58 58 57 56 56 56 55 54 53 53 53 53 52 52 50 47 45 43 41 41 42 42 40 38 37 36 36 37 38 39 40 41 41 42 43 45 47
62 62 62 61 61 60 59 59 58 58 59 59 60 61 62 62 61 59 57 55 55 55 56 58 60 59 57 56 56 56 56 56 55 55 54 54 53 52 50 50 49 46 43 41 40 40 42 40 36 34 35 37 39 41 42 43 44 43 43 43 44 45 46
63 63 63 63 62 61 60 59 59 59 58 58 58 58 58 59 58 56 55 54 54 54 54 56 58 58 57 56 55 55 56 56 56 55 54 52 51 50 48 46 46 44 42 41 41 41 41 40 39 39 42 45 46 46 46 45 44 44 44 45 45 46 47
65 64 64 63 63 62 61 60 59 59 59 59 58 57 55 55 55 55 54 53 53 53 53 54 55 56 56 56 55 55 56 56 55 54 52 51 50 50 48 45 43 43 43 43 44 43 43 44 46 49 52 51 50 49 47 46 45 45 46 47 48 49 49
66 66 65 64 63 63 62 61 61 60 60 59 59 58 56 53 52 52 53 53 53 52 52 53 53 52 53 54 54 55 56 56 56 55 55 54 53 52 51 50 47 46 46 46 46 47 47 48 50 52 52 51 50 49 49 49 50 51 52 53 54 53 52
67 67 66 66 65 64 63 62 62 61 61 60 60 60 59 57 54 53 52 52 52 53 54 55 54 53 54 54 54 55 55 57 58 58 58 57 56 56 56 57 55 54 52 51 51 51 52 52 52 52 52 52 52 53 54 55 57 59 60 60 60 59 57
69 69 68 67 67 66 65 64 63 63 62 62 61 61 61 61 60 58 56 53 51 52 53 55 57 58 57 56 55 56 58 60 61 61 61 62 62 61 61 61 61 60 60 59 58 58 57 57 57 56 56 57 58 59 61 62 64 66 66 66 65 64 62
71 71 70 70 69 68 67 66 65 65 64 63 63 63 63 63 63 62 61 59 57 54 54 56 60 61 60 59 60 61 63 65 65 65 65 66 67 67 66 65 64 64 64 65 65 64 64 63 62 62 62 62 64 65 66 68 69 70 70 69 68 67 65
72 72 71 71 70 70 69 68 67 67 66 65 64 63 64 64 64 64 64 64 63 61 60 63 66 65 63 62 63 65 66 67 68 68 69 69 70 70 70 69 69 69 68 69 69 69 69 68 68 68 68 68 69 69 70 70 71 72 72 71 70 69 68
71 70 70 70 70 69 69 68 68 68 68 68 67 66 66 65 65 66 66 66 66 66 67 68 69 68 68 68 68 68 69 70 70 71 71 72 72 73 73 73 73 73 73 73 73 73 73 73 73 72 72 73 72 72 73 73 73 74 74 74 73 72 71
67 67 67 67 67 66 66 66 66 67 68 69 69 69 69 68 68 68 68 68 68 69 71 72 71 71 72 72 72 72 72 72 73 74 75 75 75 75 76 76 76 76 76 77 77 77 78 78 77 77 77 77 76 77 77 78 78 78 78 78 76 75 73
64 64 64 64 63 62 61 61 62 63 65 66 67 68 69 70 70 71 71 72 72 72 73 74 74 73 74 75 75 74 74 73 74 75 77 78 79 79 79 80 80 80 80 81 82 82 83 83 83 82 82 81 81 81 81 82 81 81 80 79 77 76 75
64 64 64 63 62 60 59 58 59 60 61 63 64 65 66 67 68 70 71 73 74 75 75 76 76 76 76 77 77 77 76 76 75 76 77 78 80 81 82 82 83 84 85 86 87 87 87 86 86 85 85 84 83 83 83 83 82 82 80 79 78 78 78
65 65 64 64 63 62 60 59 58 59 60 61 63 63 64 64 65 67 68 71 73 74 75 76 76 77 78 78 78 78 78 78 77 78 78 79 79 80 80 81 82 84 85 86 86 86 85 85 84 84 84 84 84 83 83 82 82 81 80 80 80 80 80
68 68 67 66 65 65 63 62 61 60 60 62 63 64 64 64 65 65 66 68 70 71 72 73 75 76 76 77 77 77 77 78 78 79 80 80 79 79 79 79 79 79 80 81 81 81 81 81 81 82 83 83 83 83 82 81 81 81 81 81 81 82 83
72 72 71 70 69 69 68 66 65 64 64 64 65 65 65 65 66 66 66 67 68 69 70 71 72 73 74 74 74 75 75 75 76 77 78 78 78 78 78 77 77 76 76 77 77 78 78 79 80 81 82 82 82 81 81 81 81 81 81 82 83 84 85
75 75 75 75 74 73 72 71 70 69 69 69 69 69 68 68 68 69 69 69 69 69 69 69 70 71 72 72 72 72 72 73 74 74 75 76 76 77 77 76 76 76 76 76 77 78 78 79 80 81 81 81 81 80 80 81 81 82 83 84 85 86 86
Wind_Direction
273 273 273 273 272 270 268 267 267 267 268 268 269 270 270 270 271 271 270 270 271 270 269 267 265 263 262 262 261 259 259 261 263 264 265 264 263 262 261 258 255 255 257 259 260 262 266 269 268 265 264 265 263 260 257 256 254 250 246 242 238 236 237
273 274 274 274 274 273 272 272 271 271 271 272 272 272 272 272 271 270 269 267 266 265 264 263 261 260 260 259 259 259 259 262 266 270 272 271 268 267 266 265 260 256 254 255 258 261 264 265 265 266 267 268 267 261 255 253 251 247 243 241 238 237 237
273 272 273 273 274 275 275 274 273 273 272 272 272 272 272 272 271 270 268 266 263 262 261 260 260 258 258 259 259 259 260 265 270 274 277 276 273 269 268 267 265 262 257 255 256 257 259 260 261 263 264 264 265 263 256 250 248 245 241 238 236 235 235
270 270 271 272 273 273 273 272 271 271 270 270 270 271 271 270 270 270 268 266 264 261 258 257 257 257 257 258 259 259 261 266 272 276 278 279 276 272 269 269 269 267 264 259 257 256 256 256 257 258 261 263 265 266 261 254 249 245 241 237 234 234 233
271 272 272 273 273 273 273 272 271 271 270 270 270 270 271 270 270 270 269 266 263 261 257 256 255 255 255 257 258 260 262 265 270 273 275 277 276 273 270 272 272 272 270 267 262 258 255 254 255 257 260 263 265 266 265 259 253 248 243 239 236 235 235
272 273 272 272 272 272 272 272 273 274 274 274 274 273 273 272 271 271 269 266 263 260 258 256 255 254 255 256 258 261 263 265 267 268 269 271 272 271 270 271 273 273 271 269 266 262 258 256 256 258 260 263 265 265 265 263 258 252 248 243 240 238 237
271 271 271 270 269 268 269 271 273 274 275 275 274 274 274 273 272 271 269 267 263 261 259 258 257 256 256 257 259 261 263 264 264 264 264 265 266 267 267 268 270 272 271 270 268 264 260 258 258 259 260 262 264 265 266 265 262 258 253 249 245 241 240
271 271 271 270 269 268 268 270 271 271 271 271 271 270 271 271 271 271 270 268 265 263 261 261 260 259 259 259 260 262 263 263 264 263 263 263 265 266 266 266 268 270 273 273 270 266 262 260 259 259 260 261 262 264 266 266 265 262 258 254 250 246 244
272 273 273 272 271 270 270 270 270 270 270 270 270 268 269 270 271 271 270 269 268 266 264 263 262 262 261 261 261 261 262 263 263 262 262 263 265 265 265 266 267 270 273 275 272 267 263 262 261 260 261 261 261 261 263 265 265 264 261 258 254 251 248
275 275 276 277 276 274 273 272 272 273 273 273 272 271 272 274 275 273 270 268 267 266 266 266 265 264 262 261 260 260 260 260 260 261 261 263 264 264 265 265 267 269 271 272 272 268 265 263 263 262 261 261 260 259 259 261 262 263 262 260 257 254 251
276 277 277 279 279 279 277 275 275 276 275 274 274 274 274 276 276 275 273 270 268 265 265 265 265 264 262 261 260 259 259 259 259 260 261 262 263 265 266 267 267 269 270 270 269 268 267 266 266 264 262 261 261 260 259 259 260 261 262 262 260 258 255
273 274 275 276 276 277 277 277 277 276 275 275 275 274 274 274 274 273 272 270 270 268 265 263 263 263 261 261 260 260 259 259 260 260 261 263 264 266 267 268 268 269 270 270 268 266 267 269 269 267 264 262 261 260 260 260 260 260 260 261 261 260 259
271 272 273 274 273 273 274 276 277 276 276 276 276 274 273 272 272 272 272 271 270 271 268 265 265 264 263 262 262 262 262 262 263 263 263 264 265 267 267 268 268 269 269 269 267 265 265 266 268 267 265 263 261 260 260 260 261 261 260 259 259 259 259
268 269 270 271 272 271 271 273 274 274 274 275 275 274 272 271 271 272 273 273 272 272 271 268 267 266 265 264 264 264 265 265 266 266 266 266 267 268 268 268 269 269 269 269 268 266 265 264 265 264 263 263 262 261 262 263 264 264 263 261 259 257 256
268 268 267 267 268 268 268 270 271 270 270 271 271 271 271 271 272 273 274 274 273 273 272 269 267 267 267 267 266 265 265 266 266 266 266 267 267 268 268 269 269 268 269 269 268 267 266 265 264 262 261 260 261 262 264 266 266 266 264 263 261 259 257
269 268 267 266 265 265 265 267 268 269 269 270 271 271 271 271 273 275 276 275 274 274 273 272 270 270 271 271 269 268 267 267 267 267 267 268 268 268 268 268 267 267 267 267 267 267 265 264 263 262 261 260 261 262 264 265 267 267 266 264 262 261 259
268 268 268 267 266 264 262 263 264 267 269 270 270 271 271 272 273 274 274 274 274 274 273 273 272 272 272 272 271 270 269 270 270 269 269 270 270 269 269 269 269 269 268 268 267 266 264 263 262 261 261 261 261 262 264 265 266 267 266 265 264 262 261
269 269 269 269 268 266 264 261 260 261 263 265 268 269 270 271 272 272 272 272 272 273 274 274 273 272 271 270 269 269 269 270 271 272 272 271 271 271 272 272 272 271 271 270 269 268 266 265 263 262 260 260 260 261 263 263 264 264 263 262 262 262 261
270 270 270 270 269 268 267 264 261 259 259 260 264 267 269 270 270 270 270 270 270 271 272 272 272 272 271 270 270 270 271 272 272 272 272 272 273 273 274 274 274 274 274 273 272 270 268 266 264 262 260 260 260 260 261 262 262 262 261 261 260 260 259
270 270 270 270 269 268 267 266 264 261 260 260 261 264 266 268 269 269 268 269 269 269 270 270 271 271 271 271 271 272 272 273 273 274 274 274 275 275 276 276 275 275 275 275 274 272 269 266 263 261 260 260 259 258 258 259 260 261 262 261 261 260 259
270 270 269 269 268 267 266 265 264 263 261 261 261 261 263 264 266 267 268 269 270 270 269 269 269 269 270 271 271 271 271 272 273 274 274 274 275 275 276 276 276 275 274 274 274 272 269 265 260 257 257 256 256 256 258 260 262 264 264 264 264 263 261
269 269 269 268 267 266 265 264 262 261 260 260 260 261 262 262 263 265 266 267 267 268 268 268 268 268 269 269 269 269 269 270 271 271 272 273 273 273 274 274 275 274 272 272 273 270 266 261 253 250 253 255 256 259 262 264 265 266 266 267 267 267 265
267 267 267 267 266 265 264 263 261 260 259 259 259 260 261 262 262 262 263 263 264 265 267 269 271 271 269 268 267 267 267 267 268 268 269 270 270 270 270 271 270 269 268 270 271 268 264 257 252 255 262 265 263 263 264 265 265 267 270 271 271 270 269
266 266 265 265 265 264 263 262 261 260 259 258 258 259 260 261 262 261 261 261 263 265 268 269 271 272 273 272 270 269 269 269 269 269 270 269 269 270 271 270 268 266 267 270 270 269 266 262 261 265 270 271 268 267 269 271 272 274 276 277 277 277 275
265 264 264 263 263 262 262 261 260 260 259 259 258 257 257 258 260 261 261 261 263 265 267 267 267 269 271 273 273 274 274 274 274 275 275 275 275 277 277 277 274 271 270 272 273 273 272 270 270 271 273 273 273 274 278 280 282 283 283 283 283 282 281
263 263 262 261 261 260 260 260 259 259 259 258 258 257 256 255 257 258 259 261 263 264 265 266 266 265 266 267 269 271 273 274 276 278 278 278 280 281 282 282 282 281 280 279 278 277 277 277 277 277 279 280 282 283 285 286 287 288 288 287 286 286 284
262 261 261 260 259 259 258 258 258 258 258 258 257 257 257 256 256 256 255 256 257 259 262 265 265 264 263 264 264 264 266 270 273 275 277 279 280 281 282 282 283 284 284 284 283 283 282 282 283 283 284 284 285 286 287 288 288 288 288 288 287 287 286
262 261 260 260 259 258 257 257 257 257 257 257 257 257 257 257 256 256 255 254 253 253 255 258 259 259 261 262 262 262 263 267 270 272 274 276 278 280 280 281 281 282 282 283 283 284 284 283 283 283 283 283 284 285 286 286 286 286 286 286 286 286 285
262 262 261 260 259 258 257 257 256 256 256 256 256 256 256 256 256 256 255 255 255 254 253 253 254 256 258 259 260 261 262 264 267 269 271 273 275 277 278 279 280 280 281 281 281 282 282 282 282 282 282 282 282 283 283 283 283 283 284 284 285 285 284
261 261 260 260 259 258 258 257 256 256 255 254 254 253 253 254 254 254 255 255 256 257 257 256 256 257 258 258 259 260 261 263 264 265 267 270 272 273 275 276 277 278 279 279 280 280 280 280 281 281 281 281 282 282 283 283 284 284 284 285 285 285 285
260 259 259 258 258 258 257 257 256 256 256 255 254 253 252 252 252 252 253 253 254 255 257 258 258 259 259 260 260 260 260 261 262 263 265 267 269 271 272 274 275 276 277 278 278 279 280 280 280 281 281 282 282 283 283 284 284 285 285 285 285 284 285
261 260 260 259 259 258 257 257 257 257 256 256 256 254 253 252 251 251 252 253 253 253 255 257 258 259 259 260 261 261 260 261 261 262 263 265 266 268 269 270 272 273 273 274 275 277 278 278 279 280 280 281 281 282 282 283 283 283 284 284 284 284 284
262 262 261 261 261 260 259 258 257 257 257 257 257 256 255 254 253 252 252 253 253 254 254 255 257 258 258 259 261 262 262 263 263 263 263 264 265 266 267 268 268 269 270 272 273 274 275 276 277 278 279 280 280 281 282 282 282 283 283 284 284 284 285
263 263 262 262 262 261 260 258 257 257 257 257 258 257 257 256 256 255 254 254 254 255 255 256 256 257 258 259 260 262 264 265 266 266 266 267 267 267 268 268 268 269 270 271 272 273 274 275 277 277 278 279 280 281 282 282 283 283 284 284 284 285 286
265 264 264 263 262 262 261 259 258 257 256 257 257 257 257 257 257 256 256 256 256 256 257 257 258 258 259 260 261 262 264 265 266 267 268 269 269 269 269 269 269 270 271 271 272 273 274 275 276 277 278 279 280 281 282 282 283 283 283 284 285 285 286
266 266 266 265 264 264 263 262 260 259 257 256 257 257 257 258 258 258 257 257 257 257 257 258 259 260 260 261 262 263 263 264 265 266 267 268 269 269 270 270 271 271 272 272 273 274 275 276 277 277 278 279 280 280 281 281 282 282 283 284 285 285 286
264 265 265 265 265 265 265 264 263 262 261 259 258 257 257 257 258 258 258 258 258 258 258 258 259 260 261 261 261 262 262 263 264 265 266 267 268 268 269 270 271 272 272 273 274 274 275 276 276 277 278 278 279 280 280 281 282 282 283 284 285 286 287
Height
10608 10609 10609 10611 10612 10613 10614 10614 10614 10615 10615 10616 10617 10618 10619 10619 10619 10620 10620 10621 10621 10621 10622 10623 10624 10624 10624 10623 10624 10624 10624 10625 10626 10626 10626 10626 10626 10626 10626 10626 10625 10625 10625 10625 10625 10625 10625 10625 10625 10625 10626 10626 10626 10627 10627 10627 10628 10628 10629 10631 10633 10634 10636
10604 10604 10605 10606 10607 10608 10608 10609 10610 10610 10611 10611 10612 10613 10613 10614 10614 10615 10616 10616 10617 10618 10618 10619 10620 10620 10621 10621 10621 10621 10621 10622 10622 10623 10623 10623 10623 10623 10623 10622 10622 10622 10622 10622 10622 10622 10622 10622 10621 10621 10621 10621 10621 10622 10623 10623 10623 10624 10624 10626 10627 10629 10631
10599 10599 10599 10600 10601 10602 10602 10603 10604 10605 10606 10606 10607 10608 10608 10608 10609 10610 10611 10612 10613 10614 10614 10615 10616 10616 10617 10617 10618 10618 10618 10618 10618 10619 10620 10620 10620 10619 10619 10619 10619 10618 10618 10618 10618 10618 10618 10618 10618 10617 10617 10617 10617 10618 10618 10619 10619 10619 10620 10621 10623 10624 10626
10592 10593 10593 10594 10595 10596 10596 10597 10598 10599 10600 10602 10602 10603 10603 10604 10604 10605 10606 10607 10608 10609 10610 10611 10612 10613 10613 10613 10614 10614 10615 10615 10615 10615 10616 10616 10616 10616 10616 10616 10616 10616 10615 10615 10615 10615 10615 10615 10614 10614 10613 10613 10614 10614 10614 10615 10615 10616 10616 10617 10619 10620 10622
10587 10588 10588 10589 10590 10591 10591 10592 10592 10594 10595 10597 10598 10599 10599 10599 10599 10600 10601 10602 10603 10604 10605 10607 10608 10609 10609 10610 10610 10610 10611 10611 10611 10612 10612 10612 10613 10613 10613 10613 10613 10613 10613 10613 10612 10612 10612 10612 10611 10610 10610 10610 10610 10610 10610 10611 10611 10612 10612 10613 10615 10616 10618
10583 10583 10584 10585 10586 10587 10587 10587 10588 10589 10591 10592 10594 10594 10595 10595 10596 10596 10597 10598 10598 10599 10600 10601 10603 10604 10605 10605 10606 10606 10607 10607 10608 10608 10608 10609 10609 10609 10610 10610 10610 10610 10610 10610 10610 10610 10609 10609 10608 10608 10607 10607 10607 10606 10606 10607 10607 10608 10608 10609 10611 10612 10614
10579 10579 10579 10581 10582 10584 10584 10585 10586 10587 10588 10589 10590 10591 10591 10592 10592 10593 10593 10594 10594 10595 10595 10596 10597 10598 10599 10600 10601 10602 10602 10602 10603 10603 10604 10605 10605 10605 10606 10606 10606 10606 10607 10607 10607 10607 10606 10606 10605 10605 10605 10604 10604 10604 10603 10604 10604 10605 10605 10606 10607 10608 10609
10574 10574 10575 10576 10578 10579 10581 10582 10583 10583 10584 10585 10586 10587 10587 10588 10588 10589 10589 10590 10590 10590 10591 10591 10592 10593 10594 10595 10595 10596 10597 10597 10598 10598 10599 10600 10601 10601 10602 10602 10603 10603 10603 10603 10603 10603 10603 10602 10602 10602 10602 10602 10601 10601 10601 10601 10601 10602 10602 10602 10603 10604 10605
10569 10570 10569 10571 10572 10574 10576 10578 10578 10578 10579 10581 10582 10582 10583 10584 10584 10585 10585 10585 10585 10586 10586 10586 10587 10587 10588 10589 10590 10591 10591 10592 10593 10593 10594 10595 10596 10597 10597 10598 10599 10599 10599 10600 10599 10599 10599 10598 10598 10598 10598 10598 10598 10598 10598 10598 10598 10598 10598 10599 10599 10599 10600
10566 10566 10565 10565 10566 10568 10570 10572 10572 10572 10573 10575 10576 10577 10578 10579 10579 10580 10580 10580 10580 10581 10581 10582 10582 10583 10583 10584 10585 10585 10586 10587 10587 10588 10589 10590 10590 10591 10592 10593 10594 10594 10595 10595 10595 10595 10594 10594 10594 10594 10594 10594 10594 10595 10595 10594 10594 10594 10594 10595 10595 10595 10595
10561 10561 10560 10560 10560 10562 10564 10565 10567 10567 10567 10569 10570 10571 10572 10573 10574 10575 10575 10575 10576 10576 10576 10577 10578 10578 10579 10579 10580 10580 10581 10582 10582 10583 10584 10584 10585 10586 10587 10588 10588 10589 10590 10590 10590 10590 10590 10590 10590 10590 10590 10590 10590 10590 10590 10590 10590 10590 10590 10590 10591 10591 10591
10557 10556 10555 10555 10556 10556 10556 10558 10561 10561 10561 10563 10564 10565 10566 10567 10567 10568 10569 10570 10570 10571 10571 10571 10572 10573 10574 10574 10575 10575 10576 10576 10577 10578 10578 10579 10580 10581 10582 10583 10583 10584 10584 10585 10585 10585 10585 10585 10585 10585 10585 10585 10585 10585 10585 10585 10586 10586 10586 10586 10586 10587 10587
10553 10552 10551 10551 10552 10552 10551 10552 10554 10555 10555 10557 10558 10559 10560 10560 10560 10561 10562 10563 10564 10565 10566 10566 10567 10567 10568 10569 10569 10570 10571 10571 10572 10573 10573 10574 10575 10576 10576 10577 10578 10578 10579 10579 10580 10580 10580 10580 10580 10580 10580 10580 10580 10580 10580 10580 10580 10581 10581 10581 10581 10582 10582
10549 10549 10548 10547 10547 10547 10546 10546 10548 10549 10549 10550 10551 10552 10553 10553 10553 10554 10555 10557 10558 10559 10559 10560 10560 10561 10562 10562 10563 10564 10565 10566 10567 10567 10568 10568 10569 10570 10570 10571 10572 10572 10573 10573 10574 10574 10574 10574 10574 10575 10575 10575 10575 10575 10575 10575 10575 10575 10575 10576 10576 10577 10577
10544 10544 10544 10543 10542 10541 10540 10541 10542 10543 10543 10544 10544 10544 10545 10546 10546 10547 10549 10550 10551 10552 10552 10553 10553 10554 10555 10556 10557 10558 10559 10560 10561 10561 10562 10562 10563 10563 10564 10564 10565 10565 10566 10567 10567 10568 10568 10568 10568 10569 10569 10569 10569 10569 10569 10569 10569 10569 10569 10569 10570 10571 10571
10539 10539 10539 10539 10538 10537 10535 10535 10535 10536 10537 10537 10537 10537 10537 10538 10539 10540 10542 10543 10543 10544 10545 10545 10546 10547 10548 10549 10550 10551 10552 10553 10554 10554 10555 10556 10556 10556 10557 10557 10558 10558 10559 10559 10560 10560 10560 10561 10561 10562 10562 10563 10563 10563 10563 10563 10563 10562 10563 10563 10563 10564 10564
10533 10532 10532 10533 10534 10533 10532 10531 10530 10531 10531 10530 10530 10530 10531 10532 10533 10534 10534 10535 10536 10536 10537 10538 10539 10539 10540 10541 10542 10543 10544 10545 10546 10547 10548 10548 10549 10549 10549 10550 10551 10551 10551 10552 10552 10552 10552 10553 10553 10554 10555 10555 10556 10556 10556 10556 10556 10556 10556 10556 10557 10557 10557
10526 10525 10525 10526 10526 10527 10526 10526 10526 10526 10526 10526 10525 10525 10525 10526 10526 10527 10527 10528 10528 10528 10529 10530 10530 10531 10532 10533 10534 10535 10537 10537 10538 10539 10540 10540 10541 10541 10542 10543 10543 10544 10544 10544 10544 10544 10544 10544 10545 10546 10547 10547 10548 10548 10549 10549 10549 10549 10550 10549 10550 10550 10550
10518 10518 10518 10518 10518 10518 10519 10519 10520 10521 10521 10521 10521 10520 10519 10519 10520 10520 10520 10520 10520 10520 10520 10521 10522 10522 10523 10525 10526 10528 10529 10530 10531 10531 10532 10533 10533 10534 10535 10535 10536 10536 10537 10537 10537 10537 10537 10537 10537 10538 10538 10539 10540 10541 10541 10541 10542 10542 10542 10542 10542 10543 10543
10510 10510 10511 10511 10511 10511 10511 10512 10513 10513 10514 10515 10515 10515 10513 10513 10513 10514 10513 10513 10513 10513 10512 10513 10514 10514 10515 10517 10519 10521 10521 10522 10523 10524 10525 10526 10526 10527 10527 10528 10529 10530 10529 10529 10530 10530 10530 10530 10530 10530 10531 10532 10532 10533 10533 10534 10535 10535 10535 10535 10535 10535 10535
10502 10502 10502 10503 10503 10504 10504 10505 10506 10506 10506 10507 10507 10508 10507 10506 10507 10507 10507 10507 10506 10505 10505 10505 10506 10507 10508 10510 10511 10513 10514 10515 10516 10517 10518 10518 10519 10519 10520 10520 10521 10522 10522 10522 10522 10523 10523 10523 10523 10524 10524 10525 10525 10526 10527 10527 10528 10528 10528 10528 10527 10527 10527
10493 10493 10494 10494 10495 10496 10497 10498 10498 10499 10499 10499 10499 10500 10500 10500 10501 10502 10502 10501 10499 10498 10498 10497 10497 10500 10502 10503 10504 10505 10506 10507 10509 10509 10510 10511 10511 10512 10513 10513 10514 10515 10515 10515 10516 10516 10516 10517 10517 10518 10518 10518 10519 10519 10520 10520 10520 10520 10520 10520 10520 10519 10520
10486 10485 10485 10485 10487 10488 10489 10490 10491 10491 10492 10492 10492 10493 10492 10492 10493 10495 10495 10494 10492 10492 10491 10490 10489 10491 10494 10496 10498 10499 10499 10500 10501 10502 10504 10504 10505 10505 10507 10508 10508 10508 10509 10509 10509 10510 10511 10511 10511 10511 10511 10511 10511 10511 10511 10512 10512 10512 10512 10511 10511 10511 10512
10478 10478 10478 10478 10479 10480 10481 10482 10483 10483 10484 10485 10486 10486 10485 10485 10485 10487 10487 10487 10486 10486 10486 10484 10482 10482 10483 10485 10488 10490 10491 10492 10493 10495 10496 10497 10497 10498 10499 10501 10502 10503 10503 10503 10503 10503 10504 10506 10505 10505 10504 10503 10503 10503 10502 10502 10502 10502 10502 10502 10502 10502 10503
10470 10470 10470 10471 10471 10472 10472 10473 10474 10475 10476 10477 10478 10479 10479 10479 10478 10479 10479 10479 10480 10481 10479 10476 10476 10476 10475 10476 10478 10479 10480 10482 10483 10485 10486 10487 10488 10489 10489 10491 10493 10495 10496 10496 10496 10496 10497 10498 10498 10497 10496 10495 10494 10494 10493 10492 10492 10492 10492 10492 10492 10493 10493
10461 10461 10462 10462 10463 10464 10464 10465 10466 10466 10467 10469 10470 10471 10472 10473 10473 10472 10472 10472 10473 10473 10472 10470 10470 10470 10469 10469 10471 10471 10471 10472 10473 10474 10476 10477 10478 10479 10479 10480 10481 10483 10485 10486 10487 10487 10488 10488 10488 10487 10486 10485 10485 10484 10484 10483 10483 10483 10483 10482 10483 10483 10483
10453 10453 10453 10453 10454 10455 10456 10457 10457 10458 10459 10460 10462 10463 10464 10465 10465 10466 10466 10466 10465 10465 10466 10465 10463 10462 10461 10463 10464 10464 10464 10464 10465 10466 10467 10468 10469 10470 10471 10471 10471 10471 10472 10474 10475 10476 10477 10477 10477 10477 10477 10476 10476 10475 10475 10475 10474 10474 10473 10473 10473 10473 10473
10442 10443 10443 10444 10445 10446 10447 10448 10449 10450 10451 10452 10453 10454 10455 10456 10457 10458 10458 10458 10458 10460 10460 10457 10453 10452 10454 10456 10457 10457 10457 10457 10458 10459 10459 10460 10460 10461 10462 10463 10463 10464 10464 10464 10465 10465 10466 10466 10467 10467 10467 10467 10467 10467 10467 10466 10466 10465 10465 10465 10464 10464 10463
10431 10432 10433 10433 10435 10436 10438 10439 10440 10441 10442 10443 10445 10446 10446 10447 10448 10449 10450 10450 10450 10453 10453 10448 10444 10445 10448 10449 10449 10449 10450 10450 10451 10451 10452 10452 10452 10452 10453 10454 10454 10455 10456 10456 10456 10456 10456 10457 10457 10457 10458 10458 10458 10458 10458 10458 10457 10457 10456 10456 10455 10454 10454
10421 10422 10422 10423 10424 10426 10428 10430 10430 10431 10431 10433 10434 10435 10436 10438 10439 10440 10440 10441 10443 10444 10443 10439 10438 10439 10440 10441 10441 10442 10442 10443 10444 10444 10444 10445 10444 10444 10445 10445 10446 10446 10447 10447 10447 10447 10447 10447 10447 10447 10448 10448 10448 10448 10448 10448 10447 10447 10446 10445 10444 10443 10443
10410 10411 10412 10413 10415 10417 10419 10420 10420 10420 10421 10422 10423 10425 10426 10428 10429 10430 10431 10432 10434 10435 10432 10430 10430 10431 10431 10432 10433 10434 10435 10436 10437 10437 10437 10437 10437 10437 10436 10437 10437 10437 10437 10437 10437 10437 10436 10436 10437 10437 10437 10437 10437 10438 10438 10437 10436 10436 10435 10434 10433 10432 10432
10400 10401 10402 10403 10405 10407 10409 10410 10410 10410 10410 10411 10412 10414 10416 10417 10419 10420 10421 10422 10423 10424 10423 10422 10422 10423 10423 10423 10423 10425 10426 10428 10429 10430 10430 10430 10430 10429 10429 10429 10429 10429 10428 10427 10427 10427 10427 10426 10426 10426 10426 10427 10427 10427 10427 10426 10425 10424 10424 10423 10422 10421 10421
10391 10391 10392 10394 10396 10398 10400 10401 10401 10401 10401 10401 10402 10403 10405 10407 10409 10410 10411 10412 10412 10413 10413 10413 10413 10413 10414 10414 10415 10416 10417 10419 10421 10422 10422 10422 10421 10421 10421 10421 10421 10420 10419 10418 10418 10418 10418 10417 10416 10416 10415 10415 10415 10415 10415 10414 10413 10413 10412 10411 10411 10410 10409
10381 10382 10383 10384 10386 10388 10390 10391 10392 10392 10392 10392 10392 10393 10395 10396 10398 10399 10400 10401 10401 10402 10402 10403 10404 10405 10405 10406 10407 10408 10409 10410 10411 10412 10411 10411 10412 10412 10412 10411 10411 10410 10410 10409 10408 10408 10408 10407 10407 10406 10404 10404 10403 10403 10402 10402 10401 10401 10400 10399 10399 10398 10396
10370 10371 10372 10375 10376 10377 10379 10381 10382 10383 10383 10383 10383 10384 10385 10387 10388 10389 10390 10390 10391 10391 10392 10393 10394 10395 10396 10397 10399 10400 10401 10402 10402 10401 10401 10401 10401 10401 10401 10401 10401 10401 10400 10399 10398 10398 10398 10397 10396 10395 10394 10393 10392 10392 10392 10392 10391 10390 10389 10388 10388 10386 10384
10360 10360 10361 10363 10365 10366 10368 10370 10372 10373 10374 10374 10375 10375 10376 10377 10378 10379 10379 10380 10381 10382 10383 10384 10385 10386 10387 10389 10390 10391 10392 10392 10392 10391 10391 10391 10390 10390 10389 10390 10390 10390 10390 10389 10388 10388 10388 10387 10385 10384 10383 10383 10382 10382 10382 10382 10381 10380 10379 10378 10376 10374 10373
10349 10349 10349 10350 10352 10354 10356 10358 10360 10361 10362 10363 10364 10365 10367 10369 10369 10369 10369 10370 10371 10373 10375 10376 10377 10377 10378 10379 10380 10381 10382 10382 10382 10382 10381 10381 10380 10379 10379 10380 10380 10380 10380 10379 10378 10378 10377 10376 10375 10374 10373 10373 10373 10373 10373 10372 10372 10371 10369 10367 10365 10363 10362